Home   Weather   Wichita   Past weeks

Flag for USA Past Weather in Wichita, Kansas, USA — Yesterday and Last 2 Weeks

Now
74 °F

Broken clouds.


Feels Like: 74 °F
Forecast: 72 / 95 °F
Wind: 17 mph from South

Location: Wichita Mid-Continent Airport

Current Time: Jun 29, 2017 at 7:34:03 am

Latest Report: Jun 29, 2017 at 6:53 am


Visibility: 10 mi

Pressure: 29.71 "Hg

Humidity: 82%

Dew Point: 68 °F

Location of WichitaLocation

Past Weather in Wichita — Graph

°F

Wichita Temperature Yesterday

Maximum temperature yesterday: 94 °F (at 3:53 pm)
Minimum temperature yesterday: 72 °F (at 6:53 am)
Average temperature yesterday: 82 °F

High & Low Weather Summary for the Past Weeks

 TemperatureHumidityPressure
High95 °F (Jun 15, 3:53 pm)100% (Jun 27, 6:13 am)30.26 "Hg (Jun 27, 6:13 am)
Low61 °F (Jun 19, 4:53 am)29% (Jun 21, 5:53 pm)29.50 "Hg (Jun 17, 8:53 pm)
Average77 °F65%29.88 "Hg
* Reported Jun 14 5:53 am — Jun 29 5:53 am, Wichita. Weather by CustomWeather, © 2017

Note: Actual official high and low records may vary slightly from our data, if they occured in-between our weather recording intervals... More about our weather records

Advertising

Wichita Weather History for the Previous 24 Hours

Scroll right to see more
 ConditionsComfort  
Time TempWeatherWind HumidityBarometerVisibility
5:53 am
Thu, Jun 29
74 °FPartly cloudy.17 mph79%29.71 "Hg10 mi
4:53 am74 °FPassing clouds.15 mph79%29.69 "Hg10 mi
3:53 am75 °FPassing clouds.14 mph76%29.70 "Hg10 mi
2:53 am76 °FPassing clouds.15 mph74%29.70 "Hg10 mi
1:53 am77 °FPassing clouds.14 mph71%29.71 "Hg10 mi
12:53 am79 °FPassing clouds.18 mph65%29.71 "Hg10 mi
11:53 pm
Wed, Jun 28
80 °FPassing clouds.18 mph62%29.70 "Hg10 mi
10:53 pm81 °FPassing clouds.15 mph62%29.71 "Hg10 mi
9:53 pm83 °FPassing clouds.14 mph57%29.70 "Hg10 mi
8:53 pm86 °FPassing clouds.17 mph49%29.68 "Hg10 mi
7:53 pm89 °FPassing clouds.21 mph45%29.68 "Hg10 mi
6:53 pm91 °FPassing clouds.20 mph42%29.67 "Hg10 mi
5:53 pm93 °FPassing clouds.25 mph40%29.67 "Hg10 mi
4:53 pm94 °FScattered clouds.24 mph38%29.68 "Hg10 mi
3:53 pm94 °FPassing clouds.24 mph38%29.69 "Hg10 mi
2:53 pm93 °FPassing clouds.29 mph40%29.70 "Hg10 mi
1:53 pm91 °FScattered clouds.25 mph47%29.71 "Hg10 mi
12:53 pm90 °FPassing clouds.26 mph48%29.73 "Hg10 mi
11:53 am86 °FScattered clouds.25 mph57%29.75 "Hg10 mi
10:53 am83 °FScattered clouds.24 mph65%29.76 "Hg10 mi
9:53 am80 °FBroken clouds.18 mph74%29.79 "Hg10 mi
8:53 am74 °FLight rain. More clouds than sun.10 mph85%29.82 "Hg10 mi
7:53 am72 °FMore clouds than sun.12 mph91%29.83 "Hg9 mi
7:02 am72 °FBroken clouds.12 mph87%29.88 "Hg9 mi
Weather by CustomWeather, © 2017

See weather overviewHow to use our weather pages